User: anonymous   Login
Location: Unspecified
(0.0000°N, 0.0000°E)
Time: 10:18:56
(UTC+00:00)
Language:

PAYLOAD B - Orbit

View from above orbital plane
View from above orbital plane
View from above satellite
View from above satellite

Ground track
Ground track

The orbit data is extracted from the following two-line orbital elements,

1 27056U 01058B   17080.87738959 -.00000015 +00000-0 -14467-3 0  9999
2 27056 082.5378 217.6563 0004726 282.5983 077.4580 12.60505709700813
Epoch (UTC): 21 March 2017 21:03:26
Eccentricity: 0.0004726
inclination: 82.5378°
perigee height: 1417 km
apogee height: 1424 km
right ascension of ascending node: 217.6563°
argument of perigee: 282.5983°
revolutions per day: 12.60505709
mean anomaly at epoch: 77.4580°
orbit number at epoch: 70081

The dashed part of the orbit path shows where the satellite is in the earth's shadow,  

DLR